DH4SBM Weather Reports


Display with metric or nautical units.
time (UTC)temp
F
wind
direction
speed
MPH
gust
MPH
rain 1hr
in
rain 24hr
in
rain mn
in
humidity
%
barometer
mb
20260905185025 69 270 3.0 4.0 0.00 0.24 0.24 50 1024.8
20260905184025 70 292 4.0 6.0 0.00 0.24 0.24 49 1024.5
20260905183025 70 292 4.0 6.0 0.00 0.24 0.24 49 1024.5
20260905182025 71 292 3.0 6.0 0.00 0.24 0.24 48 1024.3
20260905181024 71 292 3.0 6.0 0.00 0.24 0.24 48 1024.3
20260905180024 72 292 4.0 8.0 0.00 0.24 0.24 46 1024.2
20260905175024 73 270 5.0 9.0 0.00 0.24 0.24 46 1024.0
20260905174024 73 292 5.0 10.0 0.00 0.24 0.24 45 1024.0
20260905173024 74 292 6.0 10.0 0.00 0.24 0.24 44 1023.9
20260905172024 74 292 6.0 11.0 0.00 0.24 0.24 44 1023.9
20260905171024 74 292 8.0 14.0 0.00 0.24 0.24 44 1023.8
20260905170024 75 270 9.0 15.0 0.00 0.24 0.24 43 1023.8
20260905165024 75 292 8.0 12.0 0.00 0.24 0.24 44 1023.7
20260905164024 75 292 8.0 14.0 0.00 0.24 0.24 44 1023.7
20260905163024 75 292 8.0 16.0 0.00 0.24 0.24 44 1023.5
20260905162024 75 270 11.0 17.0 0.00 0.24 0.24 44 1023.5
20260905161024 75 292 10.0 18.0 0.00 0.24 0.24 43 1023.3
20260905160024 76 292 9.0 17.0 0.00 0.24 0.24 43 1023.3
20260905155024 76 270 8.0 15.0 0.00 0.24 0.24 44 1023.3
20260905154024 75 270 9.0 17.0 0.00 0.24 0.24 46 1023.3
20260905153024 75 270 10.0 17.0 0.00 0.24 0.24 48 1023.3
20260905152024 75 270 10.0 17.0 0.00 0.24 0.24 47 1023.2
20260905150612 75 292 11.0 21.0 0.00 0.24 0.24 47 1023.1
20260905145612 76 270 7.0 16.0 0.00 0.24 0.24 48 1023.2
20260905144612 75 270 8.0 15.0 0.00 0.24 0.24 49 1023.1
20260905143614 75 292 11.0 18.0 0.00 0.24 0.24 50 1023.1
20260905142614 75 292 11.0 18.0 0.00 0.24 0.24 49 1023.2
20260905141613 75 292 11.0 19.0 0.00 0.24 0.24 51 1023.2
20260905140613 75 270 9.0 18.0 0.00 0.24 0.24 51 1023.3
20260905135613 75 270 9.0 16.0 0.00 0.24 0.24 52 1023.2
20260905134613 74 292 9.0 16.0 0.00 0.24 0.24 53 1023.2
20260905133613 74 270 10.0 16.0 0.00 0.24 0.24 53 1023.2
20260905132613 74 315 9.0 19.0 0.00 0.24 0.24 53 1023.2
20260905131612 74 270 8.0 16.0 0.00 0.24 0.24 55 1023.3
20260905130612 73 292 10.0 17.0 0.00 0.24 0.24 55 1023.1
20260905125612 73 292 11.0 20.0 0.00 0.24 0.24 57 1023.3
20260905124612 73 292 8.0 16.0 0.00 0.24 0.24 59 1023.3
20260905123614 72 292 9.0 17.0 0.00 0.24 0.24 60 1023.3
20260905122614 72 292 10.0 17.0 0.00 0.24 0.24 61 1023.2
20260905121613 72 270 9.0 17.0 0.00 0.24 0.24 60 1023.3
20260905120613 72 292 10.0 19.0 0.00 0.24 0.24 61 1023.5
20260905115612 71 270 10.0 19.0 0.00 0.24 0.24 61 1023.5
20260905114612 71 292 9.0 17.0 0.00 0.24 0.24 62 1023.4
20260905113612 71 270 10.0 18.0 0.00 0.24 0.24 63 1023.5
20260905112614 71 292 9.0 16.0 0.00 0.24 0.24 65 1023.4
20260905111614 71 270 9.0 14.0 0.00 0.24 0.24 63 1023.4
20260905110613 70 270 9.0 17.0 0.00 0.24 0.24 64 1023.5
20260905105613 70 292 9.0 14.0 0.00 0.24 0.24 62 1023.4
20260905104613 70 270 8.0 15.0 0.00 0.24 0.24 65 1023.3
20260905103613 69 292 8.0 14.0 0.00 0.24 0.24 68 1023.3
20260905102613 69 292 7.0 13.0 0.00 0.24 0.24 71 1023.2
20260905101613 69 270 9.0 15.0 0.00 0.24 0.24 70 1023.2
20260905100613 69 292 8.0 17.0 0.00 0.24 0.24 70 1023.2
20260905095612 68 292 8.0 13.0 0.00 0.24 0.24 75 1023.2
20260905094612 67 292 9.0 15.0 0.00 0.24 0.24 76 1023.3
20260905093612 67 292 8.0 16.0 0.00 0.24 0.24 77 1023.1
20260905092612 67 270 6.0 13.0 0.00 0.24 0.24 81 1023.2
20260905091614 67 292 7.0 12.0 0.00 0.24 0.24 82 1023.1
20260905090613 67 315 7.0 15.0 0.00 0.24 0.24 82 1022.9
20260905085613 65 270 7.0 15.0 0.00 0.24 0.24 84 1022.8
20260905084613 65 270 7.0 12.0 0.00 0.24 0.24 86 1022.7
20260905083613 65 270 5.0 9.0 0.00 0.24 0.24 87 1022.6
20260905082613 65 270 6.0 12.0 0.00 0.24 0.24 88 1022.4
20260905081613 64 270 6.0 12.0 0.00 0.24 0.24 89 1022.2
20260905080613 64 270 5.0 10.0 0.00 0.24 0.24 90 1022.1
20260905075613 63 248 4.0 9.0 0.00 0.24 0.24 91 1022.0
20260905074612 63 248 3.0 6.0 0.00 0.24 0.24 93 1022.1
20260905073612 63 225 3.0 8.0 0.01 0.24 0.24 93 1022.1
20260905072612 62 225 1.0 3.0 0.01 0.24 0.24 94 1022.0
20260905071612 62 202 3.0 6.0 0.01 0.24 0.24 95 1021.9
20260905070614 61 180 3.0 6.0 0.01 0.24 0.24 94 1021.8
20260905065614 61 180 2.0 5.0 0.01 0.24 0.24 95 1021.7
20260905064613 61 180 2.0 5.0 0.01 0.24 0.24 94 1021.7
20260905063613 60 180 2.0 5.0 0.00 0.23 0.23 95 1021.7
20260905062613 60 180 2.0 5.0 0.00 0.23 0.23 94 1021.5
20260905061613 60 158 0.0 2.0 0.00 0.23 0.23 94 1021.3
20260905060613 59 158 1.0 4.0 0.00 0.23 0.23 94 1021.2
20260905055613 59 158 0.0 2.0 0.00 0.23 0.23 94 1021.2
20260905054612 59 180 1.0 4.0 0.00 0.23 0.23 94 1020.9
20260905053612 59 180 2.0 4.0 0.00 0.23 0.23 94 1020.8
20260905052612 59 180 1.0 3.0 0.00 0.23 0.23 94 1020.7
20260905051612 59 180 0.0 3.0 0.00 0.23 0.23 93 1020.7
20260905050612 59 180 1.0 2.0 0.00 0.23 0.23 93 1020.3
20260905045614 59 180 0.0 1.0 0.00 0.23 0.23 93 1020.4
20260905044614 59 180 2.0 5.0 0.00 0.23 0.23 93 1020.2
20260905043613 59 135 0.0 3.0 0.00 0.23 0.23 93 1020.0
20260905042613 59 0 0.0 0.0 0.01 0.23 0.23 93 1019.9
20260905041613 59 158 1.0 4.0 0.02 0.23 0.23 93 1019.8
20260905040613 59 158 1.0 5.0 0.02 0.23 0.23 93 1019.6
20260905035613 59 180 1.0 5.0 0.05 0.23 0.23 92 1019.8
20260905034613 59 158 2.0 5.0 0.07 0.23 0.23 92 1019.9
20260905033612 59 135 2.0 4.0 0.09 0.23 0.23 92 1019.8
20260905032612 60 112 1.0 4.0 0.09 0.22 0.22 91 1019.6
20260905031612 60 90 1.0 4.0 0.09 0.21 0.21 91 1020.0
20260905030612 60 90 0.0 3.0 0.13 0.20 0.20 90 1020.0
20260905025612 60 22 1.0 3.0 0.16 0.18 0.18 90 1020.1
20260905024614 60 22 5.0 10.0 0.16 0.16 0.16 90 1020.1
20260905023613 61 360 5.0 9.0 0.14 0.14 0.14 90 1019.9
20260905022613 62 360 6.0 13.0 0.13 0.13 0.13 91 1019.9
20260905021613 63 45 5.0 13.0 0.12 0.12 0.12 90 1019.7
20260905020613 63 45 4.0 8.0 0.08 0.08 0.08 90 1019.5
20260905015613 64 22 4.0 11.0 0.02 0.02 0.02 89 1019.2
20260905014613 64 360 6.0 10.0 0.00 0.00 0.00 87 1019.1
20260905013612 65 360 8.0 12.0 0.00 0.00 0.00 84 1018.8
20260905012612 66 360 7.0 12.0 0.00 0.00 0.00 82 1018.6
20260905011612 67 338 7.0 12.0 0.00 0.00 0.00 80 1018.6
20260905010613 68 338 5.0 10.0 0.00 0.00 0.00 77 1018.3
20260905005613 69 338 4.0 9.0 0.00 0.00 0.00 74 1018.2
20260905004613 69 338 4.0 8.0 0.00 0.00 0.00 72 1018.1
20260905003613 69 360 4.0 7.0 0.00 0.00 0.00 72 1017.9
20260905002612 69 360 3.0 6.0 0.00 0.00 0.00 72 1017.7
20260905001612 69 360 5.0 9.0 0.00 0.00 0.00 72 1017.6
20260905000612 69 360 7.0 11.0 0.00 0.00 0.00 72 1017.5
20260904235612 70 360 7.0 12.0 0.00 0.00 0.00 72 1017.4
20260904234612 71 360 7.0 12.0 0.00 0.00 0.00 72 1017.3
20260904233614 72 360 8.0 15.0 0.00 0.00 0.00 70 1017.2
20260904232613 73 338 8.0 16.0 0.00 0.00 0.00 68 1016.8
20260904231613 74 315 8.0 14.0 0.00 0.00 0.00 67 1016.6
20260904230613 75 315 9.0 17.0 0.00 0.00 0.00 65 1016.6
20260904225613 76 292 7.0 15.0 0.00 0.00 0.00 63 1016.5
20260904224613 76 292 9.0 20.0 0.00 0.00 0.00 61 1016.5
20260904223612 76 292 7.0 14.0 0.00 0.00 0.00 60 1016.4
20260904222612 75 270 3.0 8.0 0.00 0.00 0.00 60 1016.3
20260904221612 76 248 3.0 7.0 0.00 0.00 0.00 59 1016.1
20260904220612 76 248 4.0 8.0 0.00 0.00 0.00 59 1015.8
20260904215612 76 225 4.0 8.0 0.00 0.00 0.00 59 1015.7
20260904214614 76 248 3.0 7.0 0.00 0.00 0.00 58 1015.7
20260904213614 76 248 4.0 8.0 0.00 0.00 0.00 58 1015.6
20260904212613 76 225 5.0 9.0 0.00 0.00 0.00 58 1015.5
20260904211611 77 225 4.0 8.0 0.00 0.00 0.00 57 1015.4
20260904210611 77 225 3.0 8.0 0.00 0.00 0.00 56 1015.2
20260904205611 77 225 4.0 8.0 0.00 0.00 0.00 56 1015.1
20260904204613 78 225 4.0 8.0 0.00 0.00 0.00 56 1015.0
20260904203613 78 225 4.0 8.0 0.00 0.00 0.00 55 1015.0
20260904202612 78 225 5.0 11.0 0.00 0.00 0.00 55 1015.1
20260904201612 78 225 5.0 11.0 0.00 0.00 0.00 55 1014.9
20260904200612 79 225 6.0 10.0 0.00 0.00 0.00 54 1014.9
20260904195612 79 225 5.0 10.0 0.00 0.00 0.00 54 1014.8
20260904194612 80 225 5.0 9.0 0.00 0.00 0.00 54 1014.9
20260904193326 80 248 4.0 10.0 0.00 0.00 0.00 53 1014.8
20260904192325 81 248 5.0 12.0 0.00 0.00 0.00 52 1014.8
20260904191325 81 270 5.0 10.0 0.00 0.00 0.00 51 1014.6
20260904190323 82 270 6.0 13.0 0.00 0.00 0.00 51 1014.6